Weather Roundup
Issued by NWS

Home | Current Version | Previous Version | Text Only | Print | Product List | Glossary On
Versions: 1 2 3 4 5 6 7 8 9 10 11 12 13 14 15 16 17 18 19 20 21 22 23 24 25 26 27 28 29 30 31 32 33 34 35 36 37 38 39 40 41 42 43 44 45 46 47 48 49 50
804
NZUS93 KARX 281159
HRRWXR

CURRENT HOURLY OBSERVATIONS ACROSS
MUCH OF THE UPPER MISSISSIPPI VALLEY
NATIONAL WEATHER SERVICE LA CROSSE WI
700 AM CDT THU JUL 28 2016


...SOUTHEAST MINNESOTA...


CITY           SKY/WX    TMP DP  RH WIND       PRES   REMARKS
ROCHESTER      CLOUDY    66  65  96 N12       29.98R
ROCHESTER/MAYO CLOUDY    66  66 100 N9        29.97R
WINONA         CLOUDY    70  64  83 N7        29.94S
AUSTIN         CLOUDY    64  63  94 N6        29.97R
ALBERT LEA     CLOUDY    66  64  94 N6        29.99R
DODGE CENTER   DRIZZLE   64  63  94 N8        29.98S
PRESTON        CLOUDY    65  64  95 N8        29.95R FOG
OWATONNA       CLOUDY    66  63  88 N9        29.99R
FARIBAULT      CLOUDY    66  63  88 N5        30.00R
$$

...ELSEWHERE IN MINNESOTA...


CITY           SKY/WX    TMP DP  RH WIND       PRES   REMARKS
MINNEAPOLIS    CLOUDY    66  62  87 N9        30.01R
INTNL FALLS    SUNNY     60  54  80 NE5       30.11R
DULUTH         MOSUNNY   59  54  83 N3        30.08R
RED WING       CLOUDY    66  63  88 NE7       29.96S
REDWOOD FALLS  CLOUDY    63  61  93 N6        30.04R
MANKATO        CLOUDY    64  59  82 N9        30.01R
WORTHINGTON    MOCLDY    59  58  96 N6        30.05R
FAIRMONT       CLOUDY    64  57  77 N8        30.01R
$$

...SOUTHWEST WISCONSIN...


CITY           SKY/WX    TMP DP  RH WIND       PRES   REMARKS
LA CROSSE      CLOUDY    69  66  90 N8        29.92R
PRAIRIE DU CHI FOG       68  66  95 CALM      29.90R VSB 1/4
BOSCOBEL       FOG       69  68  96 CALM      29.91S VSB 1/4
LONE ROCK      CLOUDY    68  67  96 CALM      29.92R FOG
PLATTEVILLE    SUNNY     68  67  95 CALM      29.91S
FORT MC COY    CLOUDY    67  67  99 NE3       29.93S
CAMP DOUGLAS   LGT RAIN  66  66 100 SE8       29.93S
MAUSTON-NEW LI LGT RAIN  68  66  93 CALM      29.93R
VIROQUA        CLOUDY    67  67 100 NE3       29.93S VSB 1/4
WIS DELLS      NOT AVBL
$$

...ELSEWHERE IN WISCONSIN...


CITY           SKY/WX    TMP DP  RH WIND       PRES   REMARKS
MILWAUKEE      PTSUNNY   70  68  93 N5        29.93R
MADISON        PTSUNNY   69  66  90 E8        29.92S
GREEN BAY      LGT RAIN  64  64 100 NE10      29.99R
EAU CLAIRE     NOT AVBL
BLACK RVR FLS  LGT RAIN  66  66 100 NE8       29.93S
MEDFORD        DRIZZLE   62  62 100 E9        30.00S
WAUSAU         LGT RAIN  60  59  96 E3        30.00R
WIS RAPIDS     CLOUDY    66  63  90 E12       29.98R
MARSHFIELD     LGT RAIN  63  60  90 NE14G21   29.97S FOG
RICE LAKE      CLOUDY    65  62  91 N9        30.02R
$$

...NORTHEAST IOWA...


CITY           SKY/WX    TMP DP  RH WIND       PRES   REMARKS
WATERLOO       CLOUDY    66  63  90 NW7       29.93R
DUBUQUE        SUNNY     70  66  87 CALM      29.92R
DECORAH        CLOUDY    68  68 100 NW5       29.92S
MASON CITY     CLOUDY    66  64  93 N9        29.99R
CHARLES CITY   CLOUDY    66  66 100 NW7       29.96R
OELWEIN        CLOUDY    66  64  94 NW7       29.94S FOG
$$

...ELSEWHERE IN IOWA...


CITY           SKY/WX    TMP DP  RH WIND       PRES   REMARKS
DES MOINES     PTCLDY    71  66  84 N5        29.95F
IOWA CITY      SUNNY     70  67  90 NW7       29.92R
FORT DODGE     CLOUDY    63  63 100 NW3       30.00R
MARSHALLTOWN   PTCLDY    63  63 100 NW5       29.95S
CEDAR RAPIDS   CLOUDY    67  67 100 NW9       29.92R FOG
$$

...NORTHERN ILLINOIS...


CITY           SKY/WX    TMP DP  RH WIND       PRES   REMARKS
CHICAGO-OHARE  PTSUNNY   75  68  78 E6        29.91R
CHICAGO-MIDWAY PTSUNNY   79  67  66 NE5       29.90S
MOLINE         SUNNY     71  68  90 CALM      29.90R
ROCKFORD       PTSUNNY   73  68  84 CALM      29.92R HAZE
PEORIA         MOSUNNY   74  72  93 CALM      29.90R
$$

NOTE: "FAIR" INDICATES FEW OR NO CLOUDS BELOW 12,000 FEET WITH NO
SIGNIFICANT WEATHER AND/OR OBSTRUCTIONS TO VISIBILITY. WIND
SPEEDS ARE IN MILES-PER-HOUR.




USA.gov is the U.S. government's official web portal to all federal, state and local government web resources and services.